| time (UTC) | temp F | wind direction | speed knots | gust knots | rain 1hr in | rain 24hr in | rain mn in | humidity % | barometer mb |
| 20260505024552 | 74 | 188 | 0.9 | 18.2 | 0.00 | 0.00 | 0.00 | 71 | 1005.8 |
| 20260505023108 | 74 | 213 | 0.0 | 9.6 | 0.00 | 0.00 | 0.00 | 71 | 1005.7 |
| 20260505021552 | 74 | 0 | 0.0 | 9.6 | 0.00 | 0.00 | 0.00 | 71 | 1005.6 |
| 20260505020054 | 75 | 190 | 0.0 | 6.1 | 0.00 | 0.00 | 0.00 | 71 | 1005.4 |
| 20260505014601 | 75 | 0 | 0.9 | 7.0 | 0.00 | 0.00 | 0.00 | 71 | 1005.4 |
| 20260505013106 | 75 | 174 | 0.9 | 7.8 | 0.00 | 0.00 | 0.00 | 70 | 1005.4 |
| 20260505011554 | 75 | 0 | 0.0 | 8.7 | 0.00 | 0.00 | 0.00 | 70 | 1005.4 |
| 20260505010052 | 76 | 0 | 0.9 | 9.6 | 0.00 | 0.00 | 0.00 | 69 | 1005.3 |
| 20260505004557 | 76 | 144 | 1.7 | 7.8 | 0.00 | 0.00 | 0.00 | 68 | 1005.5 |
| 20260505003051 | 77 | 0 | 0.9 | 7.8 | 0.00 | 0.00 | 0.00 | 67 | 1005.5 |
| 20260505001554 | 77 | 0 | 0.0 | 7.8 | 0.00 | 0.00 | 0.00 | 67 | 1005.6 |
| 20260505000113 | 78 | 160 | 1.7 | 8.7 | 0.00 | 0.00 | 0.00 | 65 | 1005.9 |
| 20260504234554 | 79 | 190 | 1.7 | 10.4 | 0.00 | 0.00 | 0.00 | 62 | 1005.9 |
| 20260504233055 | 79 | 223 | 2.6 | 15.6 | 0.00 | 0.00 | 0.00 | 61 | 1006.0 |
| 20260504231553 | 80 | 223 | 1.7 | 10.4 | 0.00 | 0.00 | 0.00 | 61 | 1006.1 |
| 20260504230105 | 80 | 225 | 1.7 | 9.6 | 0.00 | 0.00 | 0.00 | 60 | 1006.1 |
| 20260504224552 | 80 | 120 | 1.7 | 13.0 | 0.00 | 0.00 | 0.00 | 59 | 1006.5 |
| 20260504223056 | 81 | 153 | 1.7 | 12.2 | 0.00 | 0.00 | 0.00 | 58 | 1006.4 |
| 20260504221603 | 81 | 118 | 2.6 | 14.8 | 0.00 | 0.00 | 0.00 | 58 | 1006.6 |
| 20260504220059 | 81 | 142 | 1.7 | 10.4 | 0.00 | 0.00 | 0.00 | 58 | 1006.6 |
| 20260504214558 | 81 | 219 | 2.6 | 13.9 | 0.00 | 0.00 | 0.00 | 57 | 1006.8 |
| 20260504213105 | 81 | 176 | 3.5 | 14.8 | 0.00 | 0.00 | 0.00 | 57 | 1007.0 |
| 20260504211553 | 82 | 173 | 3.5 | 17.4 | 0.00 | 0.00 | 0.00 | 56 | 1007.1 |
| 20260504210055 | 83 | 114 | 2.6 | 13.0 | 0.00 | 0.00 | 0.00 | 56 | 1007.4 |
| 20260504204600 | 83 | 217 | 3.5 | 16.5 | 0.00 | 0.00 | 0.00 | 55 | 1007.7 |
| 20260504203101 | 83 | 196 | 0.9 | 13.0 | 0.00 | 0.00 | 0.00 | 57 | 1007.9 |
| 20260504201554 | 83 | 149 | 3.5 | 14.8 | 0.00 | 0.00 | 0.00 | 54 | 1008.3 |
| 20260504200056 | 82 | 185 | 1.7 | 13.0 | 0.00 | 0.00 | 0.00 | 57 | 1008.7 |
| 20260504194553 | 81 | 150 | 3.5 | 13.9 | 0.00 | 0.00 | 0.00 | 55 | 1008.9 |
| 20260504193054 | 81 | 92 | 3.5 | 13.0 | 0.00 | 0.00 | 0.00 | 56 | 1009.1 |
| 20260504191604 | 81 | 123 | 2.6 | 11.3 | 0.00 | 0.00 | 0.00 | 57 | 1009.5 |
| 20260504184555 | 80 | 194 | 3.5 | 10.4 | 0.00 | 0.00 | 0.00 | 59 | 1009.8 |
| 20260504183059 | 79 | 0 | 3.5 | 18.2 | 0.00 | 0.00 | 0.00 | 58 | 1009.9 |
| 20260504181603 | 79 | 172 | 4.3 | 11.3 | 0.00 | 0.00 | 0.00 | 58 | 1010.2 |
| 20260504180114 | 78 | 205 | 4.3 | 11.3 | 0.00 | 0.00 | 0.00 | 60 | 1010.5 |
| 20260504174556 | 78 | 115 | 2.6 | 16.5 | 0.00 | 0.00 | 0.00 | 59 | 1010.7 |
| 20260504173055 | 77 | 144 | 3.5 | 12.2 | 0.00 | 0.00 | 0.00 | 60 | 1010.9 |
| 20260504171555 | 76 | 215 | 2.6 | 17.4 | 0.00 | 0.00 | 0.00 | 61 | 1010.9 |
| 20260504140104 | 66 | 227 | 5.2 | 17.4 | 0.00 | 0.00 | 0.00 | 73 | 1012.5 |
| 20260504081555 | 59 | 0 | 0.0 | 4.3 | 0.00 | 0.00 | 0.00 | 74 | 1013.7 |
| 20260504080111 | 59 | 0 | 0.0 | 5.2 | 0.00 | 0.00 | 0.00 | 74 | 1013.8 |
| 20260504050107 | 62 | 0 | 0.0 | 3.5 | 0.00 | 0.00 | 0.00 | 68 | 1015.5 |
| 20260504044600 | 63 | 0 | 0.0 | 1.7 | 0.00 | 0.00 | 0.00 | 67 | 1015.6 |
| 20260504043059 | 63 | 0 | 0.0 | 3.5 | 0.00 | 0.00 | 0.00 | 65 | 1015.7 |
| 20260504041555 | 64 | 0 | 0.0 | 3.5 | 0.00 | 0.00 | 0.00 | 64 | 1015.9 |
| 20260504034557 | 65 | 205 | 0.0 | 4.3 | 0.00 | 0.00 | 0.00 | 61 | 1015.9 |
| 20260504033054 | 65 | 225 | 0.0 | 4.3 | 0.00 | 0.00 | 0.00 | 60 | 1015.7 |
| 20260504031603 | 66 | 0 | 0.0 | 5.2 | 0.00 | 0.00 | 0.00 | 59 | 1015.8 |
| 20260504030055 | 67 | 0 | 0.0 | 4.3 | 0.00 | 0.00 | 0.00 | 57 | 1015.8 |